TimeEDT,TemperatureF,Dew PointF,Humidity,Sea Level PressureIn,VisibilityMPH,Wind Direction,Wind SpeedMPH,Gust SpeedMPH,PrecipitationIn,Events,Conditions,WindDirDegrees,DateUTC
12:14 AM,54.1,48.7,82,30.04,10.0,East,8.1,-,N/A,,Scattered Clouds,100,2013-06-10 04:14:00
12:34 AM,53.8,48.2,81,30.03,10.0,East,10.4,16.1,N/A,,Mostly Cloudy,90,2013-06-10 04:34:00
12:54 AM,53.6,48.2,82,30.03,10.0,East,11.5,-,N/A,,Overcast,90,2013-06-10 04:54:00
1:14 AM,53.6,47.8,81,30.02,10.0,East,10.4,-,N/A,,Overcast,90,2013-06-10 05:14:00
1:34 AM,53.6,47.7,80,30.02,10.0,East,12.7,16.1,N/A,,Overcast,90,2013-06-10 05:34:00
1:54 AM,53.6,47.7,80,30.01,10.0,East,11.5,-,N/A,,Overcast,100,2013-06-10 05:54:00
2:14 AM,53.1,47.7,82,30.00,10.0,East,11.5,-,N/A,,Overcast,100,2013-06-10 06:14:00
2:34 AM,53.1,47.5,81,30.00,10.0,East,9.2,-,N/A,,Overcast,100,2013-06-10 06:34:00
2:53 AM,53.8,47.5,79,30.00,10.0,East,9.2,-,N/A,,Overcast,100,2013-06-10 06:53:00
3:14 AM,54.0,46.9,77,29.99,10.0,East,11.5,-,N/A,,Overcast,100,2013-06-10 07:14:00
3:34 AM,53.1,46.8,79,29.98,10.0,East,12.7,18.4,N/A,,Overcast,100,2013-06-10 07:34:00
3:53 AM,52.7,46.8,80,29.97,10.0,East,12.7,17.3,N/A,,Overcast,100,2013-06-10 07:53:00
4:14 AM,53.1,46.4,78,29.96,10.0,East,10.4,18.4,N/A,,Mostly Cloudy,100,2013-06-10 08:14:00
4:34 AM,52.0,46.4,81,29.95,10.0,East,11.5,17.3,N/A,,Scattered Clouds,100,2013-06-10 08:34:00
4:53 AM,51.8,46.4,82,29.95,10.0,East,12.7,19.6,N/A,,Clear,90,2013-06-10 08:53:00
5:14 AM,52.5,46.0,79,29.95,10.0,East,13.8,19.6,N/A,,Mostly Cloudy,100,2013-06-10 09:14:00
5:34 AM,52.0,45.7,79,29.95,10.0,East,12.7,20.7,N/A,,Mostly Cloudy,90,2013-06-10 09:34:00
5:54 AM,51.8,46.0,81,29.95,10.0,East,12.7,19.6,N/A,,Scattered Clouds,90,2013-06-10 09:54:00
6:14 AM,51.8,46.4,82,29.94,10.0,East,12.7,19.6,N/A,,Scattered Clouds,90,2013-06-10 10:14:00
6:33 AM,51.8,46.4,82,29.95,10.0,East,11.5,17.3,N/A,,Scattered Clouds,90,2013-06-10 10:33:00
6:54 AM,51.8,46.6,82,29.95,10.0,East,11.5,17.3,N/A,,Scattered Clouds,80,2013-06-10 10:54:00
7:14 AM,52.0,46.8,82,29.94,10.0,East,11.5,18.4,N/A,,Overcast,80,2013-06-10 11:14:00
7:33 AM,52.3,47.3,83,29.94,10.0,East,11.5,17.3,N/A,,Mostly Cloudy,80,2013-06-10 11:33:00
7:54 AM,52.7,47.3,82,29.94,10.0,ENE,12.7,20.7,N/A,,Mostly Cloudy,70,2013-06-10 11:54:00
8:14 AM,52.5,46.9,81,29.93,10.0,East,10.4,20.7,N/A,,Mostly Cloudy,90,2013-06-10 12:14:00
8:33 AM,52.9,47.3,81,29.93,10.0,East,13.8,18.4,N/A,,Overcast,80,2013-06-10 12:33:00
8:54 AM,53.6,47.3,79,29.93,10.0,East,13.8,20.7,N/A,,Overcast,90,2013-06-10 12:54:00
9:14 AM,54.1,47.3,78,29.93,10.0,East,13.8,20.7,N/A,,Overcast,80,2013-06-10 13:14:00
9:33 AM,54.5,46.9,76,29.92,10.0,East,16.1,26.5,N/A,,Overcast,90,2013-06-10 13:33:00
9:54 AM,54.7,46.8,75,29.92,10.0,East,15.0,25.3,N/A,,Overcast,100,2013-06-10 13:54:00
10:14 AM,55.6,46.9,73,29.91,10.0,East,12.7,25.3,N/A,,Overcast,100,2013-06-10 14:14:00
10:33 AM,55.0,46.8,74,29.91,10.0,East,16.1,25.3,N/A,,Overcast,100,2013-06-10 14:33:00
10:54 AM,55.8,46.9,72,29.91,10.0,East,13.8,24.2,N/A,,Overcast,100,2013-06-10 14:54:00
11:14 AM,55.8,46.8,72,29.90,10.0,East,17.3,24.2,N/A,,Overcast,100,2013-06-10 15:14:00
11:34 AM,55.6,46.8,72,29.90,10.0,East,13.8,21.9,N/A,,Overcast,100,2013-06-10 15:34:00
11:54 AM,55.4,47.3,74,29.90,10.0,East,15.0,23.0,N/A,,Overcast,100,2013-06-10 15:54:00
12:14 PM,55.4,47.5,75,29.90,10.0,East,11.5,21.9,N/A,,Overcast,90,2013-06-10 16:14:00
12:33 PM,55.8,48.0,75,29.90,10.0,East,13.8,20.7,N/A,,Overcast,100,2013-06-10 16:33:00
12:54 PM,55.8,47.8,75,29.89,10.0,East,11.5,23.0,N/A,,Scattered Clouds,90,2013-06-10 16:54:00
1:14 PM,55.4,48.0,76,29.88,10.0,East,17.3,24.2,N/A,,Clear,90,2013-06-10 17:14:00
1:34 PM,55.0,48.4,78,29.88,10.0,East,15.0,20.7,N/A,,Scattered Clouds,90,2013-06-10 17:34:00
1:54 PM,55.9,49.1,78,29.88,10.0,East,10.4,19.6,N/A,,Clear,90,2013-06-10 17:54:00
2:14 PM,55.8,49.6,80,29.88,10.0,East,16.1,23.0,N/A,,Clear,90,2013-06-10 18:14:00
2:34 PM,58.3,50.9,76,29.88,10.0,East,8.1,17.3,N/A,,Clear,90,2013-06-10 18:34:00
2:54 PM,58.5,51.4,77,29.87,10.0,East,10.4,20.7,N/A,,Clear,90,2013-06-10 18:54:00
3:14 PM,59.0,52.5,79,29.87,10.0,East,11.5,19.6,N/A,,Clear,100,2013-06-10 19:14:00
3:34 PM,60.1,53.4,79,29.87,10.0,ESE,13.8,20.7,N/A,,Clear,110,2013-06-10 19:34:00
3:54 PM,62.6,54.3,74,29.86,10.0,East,13.8,19.6,N/A,,Clear,100,2013-06-10 19:54:00
4:14 PM,63.1,54.5,73,29.86,10.0,ESE,16.1,21.9,N/A,,Clear,110,2013-06-10 20:14:00
4:34 PM,63.5,55.0,74,29.86,10.0,ESE,13.8,23.0,N/A,,Mostly Cloudy,110,2013-06-10 20:34:00
4:54 PM,64.4,56.1,74,29.86,10.0,ESE,13.8,24.2,N/A,,Overcast,110,2013-06-10 20:54:00
5:14 PM,62.6,56.1,79,29.86,10.0,ESE,10.4,17.3,N/A,,Overcast,110,2013-06-10 21:14:00
5:34 PM,61.0,55.9,83,29.86,10.0,ESE,9.2,18.4,N/A,,Overcast,110,2013-06-10 21:34:00
5:54 PM,60.3,56.3,87,29.86,10.0,ESE,9.2,17.3,N/A,,Overcast,110,2013-06-10 21:54:00
6:13 PM,57.9,54.5,88,29.86,5.0,East,9.2,17.3,N/A,,Overcast,80,2013-06-10 22:13:00
6:34 PM,55.8,53.2,91,29.86,3.0,East,8.1,-,N/A,,Overcast,80,2013-06-10 22:34:00
6:54 PM,56.8,54.5,92,29.86,7.0,ENE,6.9,-,N/A,,Overcast,70,2013-06-10 22:54:00
7:13 PM,57.6,55.4,92,29.86,7.0,East,5.8,-,N/A,,Overcast,80,2013-06-10 23:13:00
7:34 PM,57.7,55.4,92,29.86,7.0,ENE,8.1,-,N/A,,Overcast,70,2013-06-10 23:34:00
7:54 PM,58.6,55.9,91,29.85,10.0,ENE,6.9,-,N/A,,Overcast,70,2013-06-10 23:54:00
8:13 PM,59.4,56.5,90,29.85,10.0,ENE,10.4,-,N/A,,Overcast,60,2013-06-11 00:13:00
8:34 PM,59.4,56.7,91,29.86,10.0,ENE,6.9,-,N/A,,Overcast,60,2013-06-11 00:34:00
8:54 PM,59.5,57.2,92,29.85,10.0,ENE,9.2,-,N/A,,Overcast,70,2013-06-11 00:54:00
9:13 PM,59.9,57.4,91,29.85,10.0,ENE,8.1,-,N/A,,Overcast,60,2013-06-11 01:13:00
9:34 PM,59.9,57.6,92,29.85,10.0,ENE,8.1,-,N/A,,Overcast,60,2013-06-11 01:34:00
9:54 PM,59.9,57.7,93,29.85,10.0,ENE,8.1,-,N/A,,Overcast,70,2013-06-11 01:54:00
10:13 PM,60.1,58.1,93,29.84,7.0,East,8.1,-,N/A,,Overcast,80,2013-06-11 02:13:00
10:34 PM,60.3,58.5,94,29.84,1.2,East,9.2,-,N/A,,Overcast,80,2013-06-11 02:34:00
10:54 PM,60.3,58.6,94,29.85,1.5,East,5.8,-,N/A,,Overcast,90,2013-06-11 02:54:00
11:13 PM,60.1,58.8,96,29.85,1.5,East,6.9,-,N/A,,Overcast,80,2013-06-11 03:13:00
11:34 PM,59.9,58.5,95,29.85,0.8,East,4.6,-,N/A,,Overcast,80,2013-06-11 03:34:00
11:54 PM,59.9,58.3,94,29.85,0.8,ENE,3.5,-,N/A,,Overcast,60,2013-06-11 03:54:00